This is the latest recevied weather packets stored in our database for station/object SV9TNF-1. If no packets are shown the sender has not sent any weather packets the latest 10 day(s).
| Time | Temp. | Humidity | Pressure | Rain* | Wind** | Luminosity | Snow |
|---|---|---|---|---|---|---|---|
| 1778295568 | 18.33° C | 69% | 1003.7 hPa | 0 mm | 2.24 m/s, 132° | - | - |
| 1778295268 | 18.33° C | 67% | 1003.7 hPa | 0 mm | 1.79 m/s, 119° | - | - |
| 1778294968 | 18.33° C | 68% | 1003.7 hPa | 0 mm | 1.79 m/s, 91° | - | - |
| 1778294668 | 18.33° C | 69% | 1004.1 hPa | 0 mm | 1.79 m/s, 125° | - | - |
| 1778294368 | 18.33° C | 70% | 1004.1 hPa | 0 mm | 1.79 m/s, 121° | - | - |
| 1778294068 | 18.33° C | 70% | 1004.1 hPa | 0 mm | 1.79 m/s, 128° | - | - |
| 1778293768 | 18.33° C | 72% | 1004.1 hPa | 0 mm | 1.34 m/s, 117° | - | - |
| 1778293468 | 18.33° C | 73% | 1004.1 hPa | 0 mm | 1.34 m/s, 118° | - | - |
| 1778293168 | 18.33° C | 73% | 1004.1 hPa | 0 mm | 1.34 m/s, 124° | - | - |
| 1778292868 | 18.33° C | 73% | 1004.1 hPa | 0 mm | 1.34 m/s, 123° | - | - |
| 1778292568 | 18.33° C | 74% | 1004.1 hPa | 0 mm | 4.02 m/s, 90° | - | - |
| 1778292267 | 18.33° C | 74% | 1004.1 hPa | 0 mm | 1.79 m/s, 117° | - | - |
| 1778291967 | 18.33° C | 74% | 1004.7 hPa | 0 mm | 4.92 m/s, 132° | - | - |
| 1778291667 | 18.33° C | 72% | 1004.7 hPa | 0 mm | 1.79 m/s, 126° | - | - |
| 1778291367 | 18.33° C | 73% | 1004.7 hPa | 0 mm | 1.34 m/s, 123° | - | - |
| 1778291067 | 18.33° C | 74% | 1005.1 hPa | 0 mm | 5.81 m/s, 104° | - | - |
| 1778290767 | 17.78° C | 75% | 1005.1 hPa | 0 mm | 5.81 m/s, 131° | - | - |
| 1778290467 | 17.78° C | 76% | 1005.4 hPa | 0 mm | 1.34 m/s, 80° | - | - |
| 1778290167 | 17.78° C | 77% | 1005.4 hPa | 0 mm | 3.13 m/s, 115° | - | - |
| 1778289866 | 17.78° C | 77% | 1005.4 hPa | 0 mm | 0.89 m/s, 125° | - | - |
| 1778289566 | 17.78° C | 77% | 1005.4 hPa | 0 mm | 0.45 m/s, 128° | - | - |
| 1778289267 | 17.78° C | 77% | 1005.4 hPa | 0 mm | 2.24 m/s, 131° | - | - |
| 1778288966 | 17.78° C | 77% | 1005.4 hPa | 0 mm | 0.89 m/s, 126° | - | - |
| 1778288666 | 17.78° C | 77% | 1005.4 hPa | 0 mm | 1.79 m/s, 120° | - | - |
| 1778288366 | 17.22° C | 77% | 1005.4 hPa | 0 mm | 3.13 m/s, 126° | - | - |
* Rain latest hour (hover to see other rain measurements)
** Current wind speed in m/s (hover to see current wind gust speed)